This demonstration page uses our WeatherBlox Daily Observations layout. Learn more.

Hourly Observations for October 9, 2016

Temp ( °F °C ) Dew Point ( °F °C ) Humidity (%) Winds ( mph kmh ) Pressure ( in mb ) Visibility ( mi km ) Precip ( " mm )
12:15 am 00:15 Clear 52 11.1 41 5 66 66 ENE 10 17 30.27 1025 10 16.09344 0 0
12:35 am 00:35 Clear 51 10.8 42 5.5 70 70 NE 9 15 30.27 1025 10 16.09344 0 0
12:55 am 00:55 Clear 50 10.1 42 5.6 74 74 ENE 9 15 30.27 1025 10 16.09344 0 0
1:15 am 01:15 Clear 50 10.1 42 5.8 75 75 ENE 9 15 30.27 1025 10 16.09344 0 0
1:35 am 01:35 Clear 49 9.6 42 5.7 77 77 ENE 9 15 30.24 1024 10 16.09344 0 0
1:55 am 01:55 Clear 49 9.3 42 5.8 79 79 ENE 9 15 30.24 1024 10 16.09344 0 0
2:15 am 02:15 Clear 48 8.8 42 5.6 81 81 ENE 8 13 30.27 1025 10 16.09344 0 0
2:35 am 02:35 Clear 48 9 42 5.7 80 80 E 7 11 30.27 1025 10 16.09344 0 0
2:55 am 02:55 Clear 46 8 42 5.5 84 84 ESE 6 9 30.3 1026 10 16.09344 0 0
3:15 am 03:15 Clear 45 7.2 41 5.1 87 87 ESE 8 13 30.3 1026 10 16.09344 0 0
3:35 am 03:35 Clear 43 6.3 40 4.5 88 88 ESE 5 7 30.27 1025 10 16.09344 0 0
3:55 am 03:55 Clear 43 6.2 40 4.5 89 89 Calm 30.27 1025 10 16.09344 0 0
4:15 am 04:15 Clear 43 6 40 4.4 90 90 Calm 30.27 1025 10 16.09344 0 0
4:35 am 04:35 Clear 42 5.7 39 4.1 90 90 ESE 7 11 30.27 1025 10 16.09344 0 0
4:55 am 04:55 Clear 42 5.5 39 4 90 90 ESE 5 7 30.27 1025 10 16.09344 0 0
5:15 am 05:15 Clear 41 5.2 39 3.9 91 91 ESE 3 6 30.27 1025 10 16.09344 0 0
5:35 am 05:35 Clear 41 5.2 39 3.7 90 90 Calm 30.27 1025 10 16.09344 0 0
5:55 am 05:55 Clear 43 5.9 38 3.6 85 85 SE 3 6 30.27 1025 10 16.09344 0 0
6:15 am 06:15 Clear 41 5.1 38 3.1 87 87 SE 5 7 30.27 1025 10 16.09344 0 0
6:35 am 06:35 Clear 40 4.6 37 2.7 88 88 SE 3 6 30.3 1026 10 16.09344 0 0
6:55 am 06:55 Clear 41 5.2 37 2.9 85 85 SE 5 7 30.27 1025 10 16.09344 0 0
7:15 am 07:15 Clear 42 5.5 37 3 84 84 SE 6 9 30.27 1025 10 16.09344 0 0
7:35 am 07:35 Clear 40 4.7 37 2.5 86 86 SE 5 7 30.3 1026 10 16.09344 0 0
7:55 am 07:55 Sunny 40 4.5 37 2.5 87 87 SE 7 11 30.3 1026 10 16.09344 0 0
8:15 am 08:15 Sunny 42 5.3 38 3.2 86 86 Calm 30.27 1025 10 16.09344 0 0
8:35 am 08:35 Sunny 44 6.8 39 4.1 83 83 SSE 3 6 30.3 1026 10 16.09344 0 0
8:55 am 08:55 Sunny 47 8.1 40 4.5 78 78 SSE 5 7 30.3 1026 10 16.09344 0 0
9:15 am 09:15 Sunny 50 9.9 41 5.1 72 72 SSE 6 9 30.27 1025 10 16.09344 0 0
9:35 am 09:35 Sunny 54 12.2 41 5.2 63 63 S 6 9 30.24 1024 10 16.09344 0 0
9:55 am 09:55 Sunny 58 14.3 40 4.4 52 52 S 7 11 30.21 1023 10 16.09344 0 0
10:15 am 10:15 Sunny 59 15 39 4.1 48 48 S 8 13 30.18 1022 10 16.09344 0 0
10:35 am 10:35 Sunny 61 16.1 40 4.2 45 45 S 8 13 30.18 1022 10 16.09344 0 0
10:55 am 10:55 Sunny 63 17 40 4.4 43 43 S 10 17 30.18 1022 10 16.09344 0 0
11:15 am 11:15 Sunny 65 18.2 41 4.8 41 41 S 8 13 30.15 1021 10 16.09344 0 0
11:35 am 11:35 Sunny 67 19.3 43 6.2 43 43 SSW 9 15 30.15 1021 10 16.09344 0 0
11:55 am 11:55 Sunny 68 20 44 6.8 42 42 S 7 11 30.12 1020 10 16.09344 0 0
12:15 pm 12:15 Sunny 71 21.4 46 7.6 41 41 S 12 19 30.09 1019 10 16.09344 0 0
12:35 pm 12:35 Sunny 71 21.9 45 7.4 39 39 S 13 20 30.09 1019 10 16.09344 0 0
12:55 pm 12:55 Sunny 72 22.3 45 7.2 38 38 S 15 24 30.09 1019 10 16.09344 0 0
1:15 pm 13:15 Sunny 73 22.5 46 7.6 38 38 S 10 17 30.06 1018 10 16.09344 0 0
1:35 pm 13:35 Sunny 72 22.3 46 8 40 40 SSE 14 22 30.06 1018 10 16.09344 0 0
1:55 pm 13:55 Sunny 73 23 47 8.5 40 40 SSE 15 24 30.03 1017 10 16.09344 0 0
2:15 pm 14:15 Sunny 74 23.5 48 8.8 39 39 S 15 24 30.03 1017 10 16.09344 0 0
2:35 pm 14:35 Sunny 74 23.6 48 8.9 39 39 S 15 24 30.03 1017 10 16.09344 0 0
2:55 pm 14:55 Sunny 74 23.5 49 9.2 40 40 SSE 23 37 30.03 1017 10 16.09344 0 0
3:15 pm 15:15 Sunny 75 23.9 49 9.5 40 40 SSE 18 30 30.03 1017 10 16.09344 0 0
3:35 pm 15:35 Sunny 76 24.2 51 10.4 42 42 S 16 26 30.03 1017 10 16.09344 0 0
3:55 pm 15:55 Partly Cloudy 76 24.4 51 10.5 42 42 S 18 30 30 1016 10 16.09344 0 0
4:15 pm 16:15 Partly Cloudy 76 24.6 51 10.3 41 41 SSE 20 31 30 1016 10 16.09344 0 0
4:35 pm 16:35 Partly Cloudy 76 24.3 50 10 41 41 SSE 20 31 30.03 1017 10 16.09344 0 0
4:55 pm 16:55 Sunny 75 24 50 10.2 42 42 S 18 30 29.97 1015 10 16.09344 0 0
5:15 pm 17:15 Sunny 75 23.7 51 10.3 43 43 S 18 30 30 1016 10 16.09344 0 0
5:35 pm 17:35 Sunny 73 22.6 51 10.6 47 47 S 18 30 30.03 1017 10 16.09344 0 0
5:55 pm 17:55 Sunny 72 22.2 51 10.6 48 48 S 18 30 30 1016 10 16.09344 0 0
6:15 pm 18:15 Sunny 73 22.5 51 10.5 47 47 S 14 22 30 1016 10 16.09344 0 0
6:35 pm 18:35 Sunny 72 22.2 51 10.5 48 48 S 16 26 30.03 1017 10 16.09344 0 0
6:55 pm 18:55 Sunny 70 21 51 10.5 51 51 S 14 22 30.03 1017 10 16.09344 0 0
7:15 pm 19:15 Clear 68 20.1 50 9.9 52 52 S 14 22 30.06 1018 10 16.09344 0 0
7:35 pm 19:35 Clear 67 19.2 47 8.4 50 50 SSE 13 20 30.06 1018 10 16.09344 0 0
7:55 pm 19:55 Partly Cloudy 65 18.1 45 7 48 48 SSE 10 17 30.06 1018 10 16.09344 0 0
8:15 pm 20:15 Partly Cloudy 63 17.3 41 5.2 45 45 SSE 9 15 30.06 1018 10 16.09344 0 0
8:35 pm 20:35 Clear 61 16.3 39 4.1 44 44 SSE 10 17 30.06 1018 10 16.09344 0 0
8:55 pm 20:55 Clear 62 16.5 38 3.2 41 41 SSE 13 20 30.09 1019 10 16.09344 0 0
9:15 pm 21:15 Clear 61 16.3 38 3.2 42 42 SSE 14 22 30.09 1019 10 16.09344 0 0
9:35 pm 21:35 Clear 60 15.6 40 4.3 47 47 SSE 14 22 30.09 1019 10 16.09344 0 0
9:55 pm 21:55 Clear 59 15.2 42 5.4 52 52 SSE 14 22 30.09 1019 10 16.09344 0 0
10:15 pm 22:15 Clear 59 15.1 42 5.8 54 54 SSE 13 20 30.09 1019 10 16.09344 0 0
10:35 pm 22:35 Clear 59 14.8 42 5.8 55 55 SSE 13 20 30.09 1019 10 16.09344 0 0
10:55 pm 22:55 Clear 59 15 42 5.6 54 54 SSE 13 20 30.09 1019 10 16.09344 0 0
11:15 pm 23:15 Clear 59 15 42 5.7 54 54 SSE 14 22 30.06 1018 10 16.09344 0 0
11:35 pm 23:35 Clear 59 15.1 41 5.2 52 52 SSE 12 19 30.06 1018 10 16.09344 0 0
11:55 pm 23:55 Clear 59 14.8 41 5 52 52 SSE 12 19 30.06 1018 10 16.09344 0 0

Powered by AerisWeather